Regional Weather Roundup
Issued by NWS Green Bay, WI

Home | Current Version | Previous Version | Graphics & Text | Print | Product List | Glossary Off
Versions: 1 2 3 4 5 6 7 8 9 10 11 12 13 14 15 16 17 18 19 20 21 22 23 24 25 26 27 28 29 30 31 32 33 34 35 36 37 38 39 40 41 42 43 44 45 46 47 48 49 50

000
ASUS43 KGRB 011911
RWRGRB

NORTH-CENTRAL AND NORTHEAST WISCONSIN REGIONAL WEATHER ROUNDUP
NATIONAL WEATHER SERVICE GREEN BAY WI
200 PM CDT SUN MAY 01 2016

WIZ005-009-010>012-018-019-012000-
NORTH CENTRAL WISCONSIN

CITY           SKY/WX    TMP DP  RH WIND       PRES   REMARKS
IRONWOOD         N/A     48  36  61 N14       30.15S
MANITOWISH WTR MOSUNNY   57  32  38 NE8G16    30.11F
ARBOR VITAE    PTSUNNY   59  29  32 NE9G18    30.10F
EAGLE RIVER    MOSUNNY   59  24  26 E10G16    30.10S
LAND O LAKES   CLOUDY    57  29  34 CALM      30.12F
RHINELANDER    PTSUNNY   61  27  27 NE10G18   30.09F
PHILLIPS       PTSUNNY   58  31  35 NE15      30.09F
ANTIGO         PTSUNNY   58  31  36 NE9       30.08S
TOMAHAWK       PTSUNNY   62  28  26 E13       30.08F
MERRILL        PTSUNNY   61  30  31 E13       30.07F
$$

WIZ013-073-012000-
NORTHEAST WISCONSIN

CITY           SKY/WX    TMP DP  RH WIND       PRES   REMARKS
IRON MOUNTAIN  PTSUNNY   59  27  29 NE15G22   30.09S
MARINETTE      SUNNY     54  36  50 E12       30.12S
OCONTO         SUNNY     55  38  52 E13       30.11S
$$

WIZ017-030-035>037-045-012000-
CENTRAL WISCONSIN

CITY           SKY/WX    TMP DP  RH WIND       PRES   REMARKS
MEDFORD        PTSUNNY   61  33  35 E12       30.07F
WAUSAU         PTSUNNY   62  30  29 NE14      30.05F
MOSINEE        MOSUNNY   61  30  31 E15       30.08F
MARSHFIELD     CLOUDY    58  29  33 E10       30.07F
WISC RAPIDS    PTSUNNY   58  33  39 E9        30.09F
STEVENS POINT  CLOUDY    55  30  39 E12G17    30.09S
WAUPACA        CLOUDY    58  37  43 E10       30.09S
SHAWANO        MOSUNNY   60  35  40 E15       30.10R
CLINTONVILLE   CLOUDY    59  32  36 NE13G23   30.09S
WAUTOMA        PTSUNNY   57  37  47 NE16G26   30.05F
$$

WIZ038-039-048-051-012000-
FOX VALLEY

CITY           SKY/WX    TMP DP  RH WIND       PRES   REMARKS
NWS GREEN BAY  MOSUNNY   55  40  56 NE18      30.09F
APPLETON       PTSUNNY   55  32  41 NE15G23   30.06F
OSHKOSH        PTSUNNY   56  40  55 NE17      30.06F
FOND DU LAC    CLOUDY    58  40  51 NE18G26   30.05F
$$

WIZ022-050-052-012000-
EAST CENTRAL WISCONSIN

CITY           SKY/WX    TMP DP  RH WIND       PRES   REMARKS
EPHRAIM        FAIR      54  36  49 E12G18    30.11S
STURGEON BAY   MOSUNNY   54  36  50 E14G23    30.13S
MANITOWOC      MOSUNNY   53  39  59 NE16G28   30.08S
SHEBOYGAN      PTSUNNY   53  40  61 NE22      30.06S
$$

LMZ563-521-522-541>543-012000-
LAKESHORE

STATION/POSITION TIME  TEMP    WIND        PRES    VSBY  WAVE
                       AIR SEA DIR/SP/G                  HT/PER
                 (UTC) (F)     (DEG/KT/KT) (MB)    (MI)  (FT/S)
SHEBOYGAN LKSHOR 1900   43      20/ 16/ 18 1018.9F
KEWAUNEE LKSHORE 1800   46      30/ 12/ 16 1018.3F
NORTHPORT PIER   1800   44      70/ 10/ 12 1020.3F
N MID LAKE BUOY  1850   41 39   20/  6/  8 1020.3F         1
CHAMBERS ISLAND  1800   44      10/  9/ 11 1020.3F
MENOMINEE LKSHOR 1800   44      20/ 13/ 15 1018.9F
$$




USA.gov is the U.S. government's official web portal to all federal, state and local government web resources and services.